Info for pilots

Image

Airfield Info:

EBUL
N51 08.7 - E003 28.6
ELEV 95' / 29m
RWY 07 / 25
799m * 45m (CIV) - 2980m (MIL)
Ursel Radio 135.125
Tel Aero Club Brugge : +32(0)9 374 25 75
Tel Vliegclub Ursel : +32(0)9 374 12 90

Operational Hours
FRI: 14h00LT - SS+30 MIN
SAT, SUN and HOL: TKOF and LDG: 10h00LT - SS+30 MIN
After 20h00LT to SS+30 MIN: only LDG allowed (PN)

Local Traffic Regulations
The use of the AD is subject to PPR from the OPR;
AD given in concession to the CIV club outside MIL ACT;
Solo training flights can only be performed after two reconnaissance flights with instructor. The solo training flight must be performed within six weeks after the first reconnaissance flight;
Jet aircraft operations not allowed.
Obstacles: trees between 10M AGL and 22M AGL, caution when crosswind:
North of the RWY, 75M from CL, along the whole length of the RWY;
South of the RWY, 75M from CL, and at THR RWY 25 from THR RWY 07 to 140M east of THR RWY 07

Image

Image

Watch out!

Flight Procedures
RWY 07 and 25 left hand circuit, 1.200 FT AMSL

Taxi procedures:
RWY 07 (TKOF):
taxi on the north side of the RWY to the HLDG position of RWY 07

RWY 07 (LDG):
after landing roll out to the second intersection (THR RWY 25), turn left, turn left again, taxi via the TWY to the first intersection, turn left, cross the RWY (check for landing ACFT), taxi on the south side of the RWY to the AD reporting office

RWY 25 (TKOF):
taxi on the north side of the first intersection, turn left, next turn right, taxi via the TWY to the second intersection, turn right, taxi to the HLDG of RWY 25

RWY 25 (LDG):
after landing roll out to the end of the RWY, taxi on the south side of the RWY to the AD reporting office.

Image

Current Metars - Auto refresh

EBOS - Oostende
2017/11/23 00:50 EBOS 230050Z 18020KT CAVOK 11/05 Q0996 TEMPO 18020G30KT


EBAW - Antwerpen
2017/11/23 00:50 EBAW 230050Z AUTO 19011KT CAVOK 13/03 Q0998


EBBR - Brussel
2017/11/23 00:50 EBBR 230050Z 19016KT CAVOK 12/03 Q0999 TEMPO 19018G32KT

Source : NOAA.GOV

Current TAFs - Auto refresh

EBOS - Oostende
2017/11/22 18:27 TAF EBOS 221700Z 2218/2324 18016G27KT 9999 SCT040 BECMG 2301/2303 19024G38KT BECMG 2309/2311 25018G30KT TEMPO 2306/2309 4000 SHRA BKN014 BECMG 2315/2317 22008KT

EBAW - Antwerpen
2017/11/22 21:48 TAF TAF EBAW 222010Z 2221/2306 19012KT CAVOK BECMG 2301/2303 19015G27KT

EBBR - Brussel
2017/11/22 18:28 TAF EBBR 221700Z 2218/2324 18012KT CAVOK BECMG 2302/2304 19018G32KT TEMPO 2310/2313 4000 SHRA BKN014 BECMG 2313/2315 21012KT

Source : NOAA.GOV
Image

Webcam

Direction runway 07 :